Hourly Data Report for September 09, 2017

All times are specified in Local Standard Time (LST). Add 1 hour to adjust for Daylight Saving Time where and when it is observed.

KUGLUKTUK A
NUNAVUT

67°49'00.000" N
115°08'38.000" W
22.60 m
2300903
71938
YCO

Download Data

Hourly Data (September 2017)
Hourly Data Report for September 9, 2017
Temp Definition
°C
Dew Point Temp Definition
°C
Rel Hum Definition
%
Wind Dir Definition
10's deg

Wind Spd Definition
km/h
Visibility Definition
km
Stn Press Definition
kPa
Hmdx Definition


Wind Chill Definition


Weather Definition


TIME
00:00 Legend Double Dagger 0.3 -1.3 89 35 23 19.3 100.96     Snow
01:00 Legend Double Dagger 0.4 -1.1 90 36 19 24.1 101.02     LegendNANA
02:00 Legend Double Dagger 0.4 -1.2 89 34 17 24.1 101.08     Cloudy
03:00 Legend Double Dagger -0.4 -1.7 91 28 12 24.1 101.15   -4 LegendNANA
04:00 Legend Double Dagger -1.0 -1.9 94 27 14 24.1 101.17   -5 Snow
05:00 Legend Double Dagger -1.4 -2.1 95 16 7 19.3 101.24   -4 Snow
06:00 Legend Double Dagger -1.5 -2.3 94 21 8 24.1 101.27   -5 Snow
07:00 Legend Double Dagger -2.7 -3.3 95 21 10 24.1 101.29   -7 LegendNANA
08:00 Legend Double Dagger -1.2 -2.3 92 21 7 24.1 101.29   -4 Mainly Clear
09:00 Legend Double Dagger 0.7 -1.7 84 17 18 24.1 101.28     LegendNANA
10:00 Legend Double Dagger 2.1 -1.3 78 15 12 24.1 101.24     LegendNANA
11:00 Legend Double Dagger 3.5 -0.7 74 15 15 24.1 101.18     Clear
12:00 Legend Double Dagger 4.2 -0.8 70 19 19 24.1 101.13     LegendNANA
13:00 Legend Double Dagger 5.5 -0.7 64 19 18 24.1 101.08     LegendNANA
14:00 Legend Double Dagger 6.5 0.0 63 15 15 24.1 101.01     Clear
15:00 Legend Double Dagger 8.0 0.8 60 17 14 24.1 100.96     LegendNANA
16:00 Legend Double Dagger 8.7 1.0 58 13 8 24.1 100.88     LegendNANA
17:00 Legend Double Dagger 7.7 2.3 68 9 12 24.1 100.84     Clear
18:00 Legend Double Dagger 7.1 2.9 75 8 17 24.1 100.79     LegendNANA
19:00 Legend Double Dagger 6.5 3.3 80 10 17 24.1 100.75     LegendNANA
20:00 Legend Double Dagger 5.4 2.4 81 11 14 24.1 100.72     Mainly Clear
21:00 Legend Double Dagger 4.7 1.9 82 17 9 24.1 100.70     LegendNANA
22:00 Legend Double Dagger 5.0 2.0 81 13 12 24.1 100.62     LegendNANA
23:00 Legend Double Dagger 5.9 2.6 79 12 11 24.1 100.55     Mostly Cloudy

Notes on Data Quality.

Legend

  • E = Estimated
  • M = Missing
  • NA = Not Available
  • ‡ = Partner data that is not subject to review by the National Climate Archives
Date modified: